Stations météo

Publicité
Kasteli, Grèce (16760): Température de l'air & dewpoint: 17.07.2018 20:00:00 - 23.07.2018 20:00:00 (EEST)Kasteli, Grèce (16760): Vitesse du vent: 17.07.2018 20:00:00 - 23.07.2018 20:00:00 (EEST)Kasteli, Grèce (16760): Direction du vent: 17.07.2018 20:00:00 - 23.07.2018 20:00:00 (EEST)Kasteli, Grèce (16760): reduced air pressure: 17.07.2018 20:00:00 - 23.07.2018 20:00:00 (EEST)Kasteli, Grèce (16760): visibility: 17.07.2018 20:00:00 - 23.07.2018 20:00:00 (EEST)Kasteli, Grèce (16760): Quantités de précipitations: 17.07.2018 20:00:00 - 23.07.2018 20:00:00 (EEST)
Date & Time tt [°C] td [°C] ff [km/h] ff [knt] dd ppp [hPa] vv [km] rr [mm]
23.07.2018 20:00:00 - - - - - - - -
23.07.2018 19:00:00 - - - - - - - -
23.07.2018 18:00:00 35,4 12,4 11 6 NNW 1005,2 10 -
23.07.2018 17:00:00 - - - - - - - -
23.07.2018 16:00:00 - - - - - - - -
23.07.2018 15:00:00 36,8 11,4 16 9 NNE 1006,0 10 -
23.07.2018 14:00:00 - - - - - - - -
23.07.2018 13:00:00 - - - - - - - -
23.07.2018 12:00:00 36,4 8,3 13 7 NNW 1007,3 10 -
23.07.2018 11:00:00 - - - - - - - -
23.07.2018 10:00:00 - - - - - - - -
23.07.2018 09:00:00 32,8 3,2 15 8 NNE 1008,6 10 -
23.07.2018 08:00:00 - - - - - - - -
23.07.2018 07:00:00 - - - - - - - -
23.07.2018 06:00:00 30,2 2,9 5 3 N 1008,3 10 -
23.07.2018 05:00:00 - - - - - - - -
23.07.2018 04:00:00 - - - - - - - -
23.07.2018 03:00:00 30,6 5,7 5 3 N 1009,3 - 0,0
23.07.2018 02:00:00 - - - - - - - -
23.07.2018 01:00:00 - - - - - - - -
23.07.2018 00:00:00 25,6 10,6 2 1 N 1011,2 - -
22.07.2018 23:00:00 - - - - - - - -
22.07.2018 22:00:00 - - - - - - - -
22.07.2018 21:00:00 28,6 8,3 4 2 N 1011,0 10 -
22.07.2018 20:00:00 - - - - - - - -
22.07.2018 19:00:00 - - - - - - - -
22.07.2018 18:00:00 31,8 10,1 13 7 NNE 1011,1 10 -
22.07.2018 17:00:00 - - - - - - - -
22.07.2018 16:00:00 - - - - - - - -
22.07.2018 15:00:00 31,8 12,1 15 8 N 1011,1 10 -
22.07.2018 14:00:00 - - - - - - - -
22.07.2018 13:00:00 - - - - - - - -
22.07.2018 12:00:00 30,6 15,1 18 10 N 1012,0 10 -
22.07.2018 11:00:00 - - - - - - - -
22.07.2018 10:00:00 - - - - - - - -
22.07.2018 09:00:00 28,0 15,7 21 11 NNE 1012,0 10 -
22.07.2018 08:00:00 - - - - - - - -
22.07.2018 07:00:00 - - - - - - - -
22.07.2018 06:00:00 23,6 16,1 11 6 NNE 1012,1 10 -
22.07.2018 05:00:00 - - - - - - - -
22.07.2018 04:00:00 - - - - - - - -
22.07.2018 03:00:00 24,0 18,3 15 8 NE 1012,6 10 -
22.07.2018 02:00:00 - - - - - - - -
22.07.2018 01:00:00 - - - - - - - -
22.07.2018 00:00:00 24,2 16,7 9 5 NNE 1012,5 - -
21.07.2018 23:00:00 - - - - - - - -
21.07.2018 22:00:00 - - - - - - - -
21.07.2018 21:00:00 25,8 17,4 13 7 NE 1012,1 10 -
21.07.2018 20:00:00 - - - - - - - -
21.07.2018 19:00:00 - - - - - - - -
21.07.2018 18:00:00 28,6 17,3 22 12 N 1011,3 10 -
21.07.2018 17:00:00 - - - - - - - -
21.07.2018 16:00:00 - - - - - - - -
21.07.2018 15:00:00 29,2 18,3 21 11 N 1011,5 10 -
21.07.2018 14:00:00 - - - - - - - -
21.07.2018 13:00:00 - - - - - - - -
21.07.2018 12:00:00 28,8 16,4 21 11 N 1011,4 10 -
21.07.2018 11:00:00 - - - - - - - -
21.07.2018 10:00:00 - - - - - - - -
21.07.2018 09:00:00 25,8 19,9 16 9 NE 1011,2 10 -
21.07.2018 08:00:00 - - - - - - - -
21.07.2018 07:00:00 - - - - - - - -
21.07.2018 06:00:00 22,6 20,4 13 7 NE 1011,1 10 -
21.07.2018 05:00:00 - - - - - - - -
21.07.2018 04:00:00 - - - - - - - -
21.07.2018 03:00:00 22,4 20,0 9 5 N 1010,8 - -
21.07.2018 02:00:00 - - - - - - - -
21.07.2018 01:00:00 - - - - - - - -
21.07.2018 00:00:00 22,5 19,0 8 4 N 1011,1 - -
20.07.2018 23:00:00 - - - - - - - -
20.07.2018 22:00:00 - - - - - - - -
20.07.2018 21:00:00 24,2 20,2 16 9 N 1010,1 10 -
20.07.2018 20:00:00 - - - - - - - -
20.07.2018 19:00:00 - - - - - - - -
20.07.2018 18:00:00 27,6 18,0 18 10 N 1009,4 10 -
20.07.2018 17:00:00 - - - - - - - -
20.07.2018 16:00:00 - - - - - - - -
20.07.2018 15:00:00 29,8 16,5 18 10 N 1009,4 10 -
20.07.2018 14:00:00 - - - - - - - -
20.07.2018 13:00:00 - - - - - - - -
20.07.2018 12:00:00 29,2 14,9 13 7 NE 1009,0 10 -
20.07.2018 11:00:00 - - - - - - - -
20.07.2018 10:00:00 - - - - - - - -
20.07.2018 09:00:00 26,0 16,7 15 8 N 1009,3 10 -
20.07.2018 08:00:00 - - - - - - - -
20.07.2018 07:00:00 - - - - - - - -
20.07.2018 06:00:00 21,2 13,8 0 0 N 1009,2 10 -
20.07.2018 05:00:00 - - - - - - - -
20.07.2018 04:00:00 - - - - - - - -
20.07.2018 03:00:00 20,8 13,2 0 0 N 1009,4 10 -
20.07.2018 02:00:00 - - - - - - - -
20.07.2018 01:00:00 - - - - - - - -
20.07.2018 00:00:00 22,0 13,3 2 1 N 1009,5 - -
19.07.2018 23:00:00 - - - - - - - -
19.07.2018 22:00:00 - - - - - - - -
19.07.2018 21:00:00 26,0 13,1 0 0 N 1008,9 10 -
19.07.2018 20:00:00 - - - - - - - -
19.07.2018 19:00:00 - - - - - - - -
19.07.2018 18:00:00 29,6 12,9 16 9 N 1008,1 10 -
19.07.2018 17:00:00 - - - - - - - -
19.07.2018 16:00:00 - - - - - - - -
19.07.2018 15:00:00 30,4 11,7 15 8 NNE 1008,7 10 -
19.07.2018 14:00:00 - - - - - - - -
19.07.2018 13:00:00 - - - - - - - -
19.07.2018 12:00:00 29,4 13,7 15 8 N 1008,6 10 -
19.07.2018 11:00:00 - - - - - - - -
19.07.2018 10:00:00 - - - - - - - -
19.07.2018 09:00:00 27,2 15,5 16 9 N 1008,6 10 -
19.07.2018 08:00:00 - - - - - - - -
19.07.2018 07:00:00 - - - - - - - -
19.07.2018 06:00:00 22,4 19,6 11 6 NE 1008,6 10 -
19.07.2018 05:00:00 - - - - - - - -
19.07.2018 04:00:00 - - - - - - - -
19.07.2018 03:00:00 22,7 20,3 9 5 NE 1008,5 - -
19.07.2018 02:00:00 - - - - - - - -
19.07.2018 01:00:00 - - - - - - - -
19.07.2018 00:00:00 22,7 19,5 5 3 N 1008,8 - -
18.07.2018 23:00:00 - - - - - - - -
18.07.2018 22:00:00 - - - - - - - -
18.07.2018 21:00:00 25,2 19,9 11 6 NNE 1008,0 10 -
18.07.2018 20:00:00 - - - - - - - -
18.07.2018 19:00:00 - - - - - - - -
18.07.2018 18:00:00 27,2 19,5 18 10 N 1007,1 10 -
18.07.2018 17:00:00 - - - - - - - -
18.07.2018 16:00:00 - - - - - - - -
18.07.2018 15:00:00 29,0 18,9 22 12 N 1006,7 10 -
18.07.2018 14:00:00 - - - - - - - -
18.07.2018 13:00:00 - - - - - - - -
18.07.2018 12:00:00 28,4 18,4 18 10 N 1006,7 10 -
18.07.2018 11:00:00 - - - - - - - -
18.07.2018 10:00:00 - - - - - - - -
18.07.2018 09:00:00 27,6 15,3 18 10 NNE 1006,5 10 -
18.07.2018 08:00:00 - - - - - - - -
18.07.2018 07:00:00 - - - - - - - -
18.07.2018 06:00:00 20,0 16,9 0 0 N 1007,2 10 -
18.07.2018 05:00:00 - - - - - - - -
18.07.2018 04:00:00 - - - - - - - -
18.07.2018 03:00:00 21,2 16,9 0 0 N 1008,5 10 -
18.07.2018 02:00:00 - - - - - - - -
18.07.2018 01:00:00 - - - - - - - -
18.07.2018 00:00:00 24,8 19,2 11 6 SE 1008,7 - -
17.07.2018 23:00:00 - - - - - - - -
17.07.2018 22:00:00 - - - - - - - -
17.07.2018 21:00:00 29,2 15,0 0 0 N 1008,4 10 -
17.07.2018 20:00:00 - - - - - - - -

tt = Température de l'air
td = dewpoint
ff = Vitesse du vent
dd = Direction du vent
ppp = reduced air pressure
vv = visibility
rr = Quantités de précipitations

stations d'obs. à proximité